Overview Statistics Trail Chart Weather Telemetry Raw packets
 

This is the latest recevied weather packets stored in our database for station/object N9BLE. If no packets are shown the sender has not sent any weather packets the latest 10 day(s).

<< 65 66 67 68 69 70 71 >>
Time Temp. Humidity Pressure Rain* Wind** Luminosity Snow
1777588362 8.89° C 87% 1017.8 hPa 1.78 mm - 14 W/m² -
1777588058 8.89° C 87% 1017.8 hPa 1.78 mm - 21 W/m² -
1777587754 8.89° C 86% 1017.8 hPa 1.78 mm - 20 W/m² -
1777587453 8.89° C 86% 1017.7 hPa 1.78 mm - 27 W/m² -
1777587151 8.89° C 85% 1017.8 hPa 0 mm - 32 W/m² -
1777586845 8.89° C 85% 1017.6 hPa 0 mm - 31 W/m² -
1777586541 9.44° C 85% 1017.7 hPa 0 mm - 23 W/m² -
1777586237 8.89° C 83% 1017.7 hPa 0 mm - 43 W/m² -
1777585934 9.44° C 84% 1017.8 hPa 0 mm - 32 W/m² -
1777585630 9.44° C 82% 1017.7 hPa 0 mm - 27 W/m² -
1777585325 9.44° C 83% 1017.7 hPa 0 mm - 29 W/m² -
1777585020 9.44° C 84% 1017.7 hPa 0 mm - 53 W/m² -
1777584716 9.44° C 84% 1017.8 hPa 1.27 mm - 73 W/m² -
1777584415 9.44° C 84% 1017.7 hPa 3.05 mm - 59 W/m² -
1777584111 10° C 84% 1018 hPa 1.78 mm - 56 W/m² -
1777583810 10° C 81% 1017.8 hPa 0 mm - 49 W/m² -
1777583505 10° C 80% 1017.8 hPa 0 mm - 37 W/m² -
1777583199 10.56° C 79% 1017.8 hPa 1.27 mm - 38 W/m² -
1777582894 10.56° C 78% 1017.8 hPa 1.27 mm - 67 W/m² -
1777582592 10.56° C 76% 1017.8 hPa 0 mm - 76 W/m² -
1777582287 11.11° C 72% 1017.7 hPa 0 mm - 70 W/m² -
1777581985 11.67° C 70% 1017.7 hPa 0 mm - 61 W/m² -
1777581681 11.67° C 67% 1017.7 hPa 0 mm - 116 W/m² -
1777581380 11.67° C 67% 1017.8 hPa 0 mm - 117 W/m² -
1777581081 12.22° C 62% 1017.9 hPa 0 mm - 77 W/m² -

* Rain latest hour (hover to see other rain measurements)
** Current wind speed in m/s (hover to see current wind gust speed)